Theta_e
315 316 315 315 314 315 315 315 316 315 315 315 314 313 312 311 312 315 317 319 319 318 318 319 318 318 318 319 319 321 322 320 321 323 323 328 334 336 339 340 339 340 338 333 335 343 343 341 341 340 341 342 342 342 341 341 340 340 340 339 339 340 340 339 339 339 338 337 336 336 336 338 339 339 339 339 338 338 337 337 337 335 335 334 333 334
315 315 315 315 314 315 315 315 315 315 315 315 314 313 312 312 313 316 318 319 319 317 317 319 317 317 318 320 321 320 321 321 323 324 324 329 333 336 339 340 340 339 337 337 340 343 342 341 341 340 340 342 341 341 341 341 340 340 340 340 340 339 340 339 339 338 337 336 336 336 336 337 339 339 339 339 339 338 338 338 337 335 335 335 335 335
317 316 315 315 315 315 315 315 315 315 316 315 314 313 312 313 315 317 320 320 319 317 318 320 317 318 320 321 321 321 320 321 324 323 323 329 333 336 338 339 339 338 338 342 345 344 341 341 341 340 340 341 341 341 340 341 340 340 340 340 339 339 339 339 339 337 336 336 336 336 336 337 338 339 339 339 338 338 338 338 338 336 335 336 336 337
317 318 317 316 315 315 315 315 315 316 316 316 315 313 312 315 315 315 319 320 320 317 318 320 318 319 323 323 322 321 321 320 321 321 322 326 331 335 337 337 336 336 338 343 346 345 342 340 340 339 339 340 340 340 339 339 339 339 340 340 339 339 339 338 338 337 336 337 336 336 336 337 338 338 339 338 339 339 338 338 338 336 336 336 336 336
318 319 319 318 317 317 316 316 317 315 315 317 317 315 314 316 316 316 319 321 322 323 322 320 319 324 329 326 325 322 320 320 322 325 325 325 327 332 335 335 334 334 338 343 346 345 343 341 340 339 339 340 340 340 339 339 339 338 339 339 339 338 338 338 337 337 337 337 337 337 337 337 337 338 338 339 339 339 338 337 336 336 336 336 336 335
318 318 318 318 318 318 317 317 317 316 315 315 318 319 317 318 320 320 319 319 319 320 324 319 316 326 336 327 322 321 323 326 327 329 331 329 328 329 332 332 332 333 337 343 345 345 344 341 340 340 339 339 340 340 339 339 339 338 338 338 338 338 337 337 337 336 337 337 337 337 337 337 337 337 338 339 338 338 338 337 336 336 336 336 336 336
320 320 320 319 320 320 320 320 319 320 316 315 322 324 320 320 321 321 319 318 316 318 324 320 315 321 329 324 321 324 329 332 331 332 332 331 332 332 331 329 331 333 337 343 344 343 344 342 340 341 340 339 340 340 340 339 339 338 339 338 338 338 337 337 337 336 337 337 337 337 337 337 337 337 337 337 338 338 337 337 336 336 336 336 335 335
325 323 322 322 322 321 322 322 322 323 318 318 326 324 322 322 320 322 319 316 319 320 323 325 316 314 319 322 324 328 334 336 334 335 333 331 333 337 336 330 330 334 337 342 343 343 343 342 341 340 340 339 339 340 340 340 339 339 339 339 338 338 337 337 337 336 337 337 337 337 337 337 336 337 337 337 337 337 337 337 336 336 336 335 335 335
326 323 323 324 323 322 323 323 323 322 320 324 326 322 323 322 321 323 319 318 322 318 321 329 319 314 322 330 331 336 338 335 335 335 333 332 333 336 338 334 333 336 340 342 343 344 343 342 340 340 340 340 339 339 340 341 341 340 339 339 339 338 337 337 337 337 337 337 337 337 337 337 337 336 336 337 337 337 337 337 336 335 335 335 335 335
324 322 323 322 323 322 322 324 323 321 323 326 324 323 323 321 323 323 319 319 318 317 322 327 316 315 327 334 332 337 336 332 335 334 332 332 332 334 338 338 338 339 341 343 342 343 342 341 340 340 340 340 340 340 339 340 341 340 340 339 339 338 337 337 337 337 337 337 337 337 337 337 337 336 336 336 337 337 337 336 336 335 335 335 335 336
321 321 323 322 322 323 322 324 322 321 322 322 323 324 324 326 330 333 334 324 315 323 331 326 319 318 326 333 333 334 335 334 336 334 333 334 332 334 336 337 340 342 343 344 344 345 343 340 340 340 341 340 340 340 339 340 340 341 341 339 339 339 338 338 338 337 337 337 337 337 337 337 336 336 336 336 336 336 336 336 336 335 335 336 336 336
321 320 323 322 322 322 322 322 322 323 322 321 327 326 322 327 330 337 344 329 318 329 333 325 324 321 323 334 337 334 339 340 336 334 335 335 334 334 333 335 338 342 347 349 351 352 348 344 342 340 340 340 340 340 340 339 340 340 341 341 340 340 339 339 338 338 337 337 337 337 336 336 336 336 336 335 336 336 336 335 335 335 336 336 336 337
325 324 323 321 322 322 321 323 326 330 327 323 327 325 321 325 326 329 335 328 324 330 329 325 325 322 329 341 339 336 340 339 335 333 333 334 334 335 333 332 334 337 342 348 353 355 351 348 345 341 339 340 340 340 340 339 339 339 340 341 341 340 340 340 339 338 338 337 337 337 336 336 336 336 336 335 335 335 335 335 335 335 336 336 336 337
328 332 327 322 324 323 323 324 324 328 330 324 323 321 320 322 323 327 332 328 326 328 329 329 323 323 333 339 337 339 338 336 334 332 332 333 333 334 332 330 330 332 335 340 345 350 350 348 344 340 339 340 340 340 340 340 340 339 339 341 341 341 341 341 340 339 338 338 337 337 337 336 336 336 336 335 335 334 334 334 335 335 335 335 336 337
323 328 332 325 323 323 322 324 324 327 328 326 325 323 322 321 320 326 332 328 324 327 328 325 324 329 332 332 336 339 336 335 333 331 332 332 332 332 332 331 331 333 333 334 339 346 352 349 343 341 340 340 341 341 340 340 338 336 336 338 340 341 340 341 340 340 339 338 338 337 337 337 336 336 336 335 335 334 334 335 335 335 336 336 337 337
320 325 335 325 321 322 318 321 323 323 328 333 330 322 321 326 324 324 332 330 324 325 327 323 327 335 331 331 338 337 336 336 333 333 333 332 333 332 333 335 334 335 335 334 337 344 350 347 341 340 341 341 341 340 339 338 335 335 335 337 339 340 341 341 340 340 339 339 338 338 337 337 336 336 336 335 335 334 334 334 334 335 335 336 337 337
322 330 337 323 322 323 316 320 321 317 328 335 327 321 326 332 327 322 328 332 323 322 330 328 323 327 330 334 338 336 336 336 332 334 335 334 335 334 335 337 336 335 335 335 335 339 345 346 341 340 341 340 337 334 335 337 336 337 338 338 339 339 340 341 341 340 340 339 339 339 338 337 337 336 336 335 335 335 335 335 335 334 335 336 337 336
322 327 333 324 323 323 316 319 322 318 324 326 321 324 330 329 326 323 325 328 324 325 333 330 320 322 330 336 339 336 335 336 334 334 335 335 334 334 336 336 336 337 336 336 336 336 339 340 338 339 340 337 333 332 336 338 338 338 338 338 338 339 339 340 341 341 340 340 340 339 339 338 337 337 336 336 335 335 335 335 335 335 336 336 336 336
323 323 331 327 319 321 320 318 323 325 321 318 321 326 328 326 327 329 329 330 329 327 331 332 326 323 328 333 336 336 336 337 335 334 333 333 333 333 335 335 336 339 339 338 339 338 336 331 329 333 337 335 333 334 336 338 338 337 337 338 338 338 338 339 341 341 340 340 340 340 340 339 338 337 336 336 335 335 335 334 335 335 336 336 336 336
325 322 328 331 320 318 325 323 324 329 323 316 320 323 327 328 327 328 329 330 331 328 328 331 327 326 333 337 335 335 337 336 334 334 332 331 331 332 333 334 336 339 340 339 337 336 335 327 323 329 336 337 336 335 335 337 338 337 337 338 338 337 338 338 340 341 341 341 340 340 340 339 338 337 336 336 336 336 335 334 334 335 335 336 336 334
329 324 324 332 326 319 326 327 322 322 320 317 320 322 323 325 324 323 322 322 323 326 330 329 326 333 342 339 334 333 334 333 331 332 332 331 332 332 333 336 336 337 340 338 333 331 331 327 322 326 335 338 336 335 335 334 335 336 336 337 337 337 338 338 339 340 341 341 341 340 340 339 338 338 337 337 336 336 336 335 335 335 335 335 335 335
331 328 325 328 324 320 326 327 320 318 318 318 320 321 321 320 320 319 323 327 322 322 331 329 325 334 336 332 336 335 330 331 329 329 331 331 331 334 336 338 338 338 339 337 331 329 330 327 321 322 330 335 336 335 335 334 334 334 335 335 336 336 337 337 338 339 340 341 341 340 340 340 339 338 338 337 337 337 336 336 335 335 335 336 336 335
328 327 325 324 321 319 322 321 318 319 319 318 319 320 320 321 322 321 327 334 327 322 330 328 324 331 329 328 335 334 330 332 331 329 331 330 330 333 334 335 336 334 334 333 330 329 328 324 321 319 322 328 333 335 335 334 334 334 334 335 335 336 336 337 336 337 339 340 341 340 340 340 339 339 339 338 337 337 336 336 335 335 336 336 336 334
328 327 323 325 324 320 322 324 320 320 319 319 322 321 319 321 321 321 324 326 326 326 328 327 330 336 333 328 330 330 329 333 333 331 331 330 333 336 335 335 335 332 331 330 330 329 325 322 320 319 318 320 324 326 328 329 330 331 332 333 333 334 335 336 336 336 337 338 339 339 339 340 340 339 339 339 338 338 337 336 336 336 336 336 335 334
323 329 325 325 326 322 326 331 327 326 326 324 322 319 318 318 318 323 327 325 329 331 327 327 334 339 336 333 335 335 333 336 338 335 333 332 336 339 338 333 330 331 331 329 327 326 324 322 321 319 318 318 319 319 321 321 322 325 326 327 328 329 331 333 334 335 336 335 333 333 334 336 337 338 337 337 337 337 337 337 337 336 336 336 336 335
322 333 327 323 326 322 322 326 326 329 328 324 321 318 317 318 318 325 328 325 330 334 328 327 330 333 333 332 335 337 335 336 337 336 335 333 333 337 340 333 329 331 331 329 326 325 324 324 322 318 317 318 318 319 319 319 320 320 321 322 323 324 327 329 331 333 335 334 331 329 329 331 333 334 334 334 334 334 335 336 337 337 337 337 337 337
324 332 327 324 325 321 319 322 325 327 324 321 322 320 318 318 320 324 324 323 330 332 326 324 324 325 328 328 328 329 329 330 334 334 332 331 332 337 336 331 331 331 329 328 326 325 324 324 323 320 317 317 318 318 319 320 320 319 319 320 320 320 322 324 326 330 333 334 332 330 329 329 331 333 335 335 335 335 335 334 335 336 337 338 338 337
322 325 326 325 323 321 320 321 323 323 321 320 320 319 318 318 319 321 320 323 329 326 322 326 326 321 322 323 324 326 325 325 328 329 326 325 331 333 327 326 330 329 326 326 324 325 325 325 326 323 317 317 319 319 320 320 319 318 319 320 320 319 319 321 323 327 331 333 333 332 331 330 331 333 335 337 337 337 337 336 336 336 337 338 338 338
319 322 327 325 321 322 322 321 322 321 319 319 319 319 319 318 318 320 320 322 325 322 322 327 326 320 319 319 323 330 328 323 322 325 322 320 324 326 323 323 327 326 324 324 323 325 326 326 328 325 318 318 320 319 320 320 318 318 319 319 319 319 319 321 321 323 328 332 332 332 332 331 331 333 335 337 337 337 337 336 336 336 337 337 338 338
319 325 328 322 319 321 321 321 321 320 319 318 317 318 318 318 320 322 321 320 323 324 323 323 322 321 319 316 319 327 329 324 322 325 325 319 317 321 324 323 323 323 323 324 325 328 328 328 329 324 318 318 320 320 320 320 319 318 318 319 319 319 320 320 321 321 323 326 328 330 331 332 332 333 335 336 336 336 337 336 335 336 336 337 338 338
318 324 324 318 317 320 319 320 319 318 318 317 316 316 316 317 319 320 320 320 321 322 322 322 322 319 318 320 322 324 326 325 323 323 323 320 317 320 323 320 320 323 323 324 326 328 329 330 331 327 321 319 320 321 320 320 319 318 317 318 319 320 320 320 320 320 320 321 323 326 330 332 332 332 334 335 335 335 336 336 336 336 336 337 337 338
316 320 321 318 318 318 317 318 318 316 316 315 315 316 315 316 317 316 318 320 319 318 319 321 319 315 317 324 325 322 323 326 324 321 321 321 319 319 320 319 320 322 321 322 325 326 329 331 331 328 322 319 320 321 320 319 319 318 317 317 318 320 320 320 320 320 320 321 321 322 327 332 333 332 333 333 334 334 335 335 336 336 336 336 336 337
315 318 319 318 317 316 316 319 319 316 316 316 315 316 317 317 317 316 318 320 318 317 319 319 317 315 316 318 318 318 319 320 320 319 319 320 319 320 321 322 321 321 321 323 324 325 329 328 325 321 318 318 321 320 318 317 317 317 317 317 318 320 320 320 320 320 320 321 321 320 323 329 333 334 333 333 333 333 334 333 334 335 335 335 336 336
313 316 317 317 317 316 315 318 319 317 316 316 316 317 316 316 316 315 316 318 318 317 317 318 317 315 315 315 315 317 318 317 318 319 319 319 320 321 322 321 323 323 323 324 324 326 327 322 318 318 318 318 318 317 316 316 316 316 317 317 318 320 320 320 320 320 320 321 321 321 321 325 330 333 333 333 333 333 333 333 333 333 333 333 334 335
311 314 316 316 317 315 314 316 317 316 315 315 317 318 316 314 314 314 313 313 314 315 316 316 315 314 315 316 318 320 318 316 316 318 318 319 320 322 324 324 325 325 325 326 327 326 324 318 314 316 317 315 314 315 315 315 315 315 316 317 317 318 319 319 320 320 321 320 321 321 321 322 325 329 331 332 333 333 333 333 333 333 332 332 333 334
310 312 313 316 316 315 314 316 316 315 314 314 315 315 315 315 314 314 313 312 312 312 314 315 315 316 317 319 322 323 319 315 315 316 316 317 319 322 324 326 326 326 326 326 324 321 318 314 313 313 314 313 314 315 315 314 314 314 314 316 316 317 317 318 319 320 320 320 320 320 321 321 322 325 328 330 332 333 333 333 333 333 333 333 334 334
310 311 313 315 315 314 315 315 314 314 314 313 312 313 315 315 314 314 314 314 315 315 315 316 317 318 319 319 322 323 318 315 317 316 314 314 317 319 320 321 321 322 321 318 316 315 314 313 313 312 313 314 314 314 313 313 313 312 313 314 315 315 315 316 317 318 319 319 320 319 320 321 322 323 325 328 330 331 332 333 333 333 333 333 334 335
310 312 313 314 314 314 315 314 313 313 314 312 312 315 316 316 316 316 314 313 315 317 317 319 320 319 318 318 320 322 321 319 318 317 315 314 315 316 317 317 315 313 312 311 312 314 313 312 312 312 313 314 314 313 313 313 313 313 313 314 314 314 314 315 316 317 318 318 318 318 319 320 321 322 324 326 329 330 331 332 333 333 333 333 334 334
309 310 310 312 313 313 313 313 313 313 312 312 314 315 314 314 316 315 314 314 315 317 318 318 319 319 318 319 320 323 324 322 318 318 318 316 315 315 316 316 314 310 309 310 312 312 312 311 312 312 313 314 313 313 313 313 313 314 314 314 314 313 314 314 315 316 317 316 316 316 317 318 319 321 323 325 326 328 329 331 332 333 333 333 334 334
308 309 309 310 312 312 312 312 312 312 313 314 314 313 312 313 314 314 314 315 316 316 315 314 315 316 316 318 319 320 322 323 321 321 322 319 317 316 314 314 314 311 309 310 311 310 311 311 311 311 313 313 313 313 313 313 313 314 314 313 313 313 313 314 315 315 315 315 315 315 315 316 318 320 322 323 324 325 327 329 331 332 333 333 333 334
307 309 310 311 311 312 312 311 312 313 313 312 312 311 312 312 312 312 314 316 315 315 316 316 315 314 315 317 316 315 319 325 324 323 322 320 316 315 313 311 310 310 309 310 310 309 310 310 310 311 312 312 313 312 312 312 313 314 314 313 313 313 313 313 314 314 314 314 314 314 314 315 317 318 320 322 323 325 325 327 329 331 332 332 332 333
307 308 310 309 310 311 310 309 311 313 312 311 310 311 313 313 313 313 315 315 314 315 319 320 317 315 315 317 316 315 318 324 323 321 322 320 317 318 317 313 311 311 310 309 309 309 309 309 309 310 311 311 311 311 311 311 313 313 313 313 313 313 313 313 313 313 313 313 313 314 314 316 316 317 318 320 322 324 325 326 327 329 331 331 331 331
306 306 307 307 309 309 308 308 310 312 312 310 309 310 311 311 312 313 313 312 312 313 315 317 315 313 313 313 314 316 317 319 320 320 320 320 319 320 319 314 312 312 310 309 309 310 309 309 309 310 310 310 310 310 310 310 312 313 313 313 313 313 313 313 313 312 312 312 313 314 315 316 316 316 316 318 320 322 324 326 326 328 330 330 331 330
304 306 307 307 307 307 306 307 309 310 308 307 306 307 308 309 312 314 311 309 310 310 310 310 309 309 310 310 310 312 314 315 318 318 319 320 321 321 319 315 312 310 309 309 310 310 310 309 309 309 310 310 309 309 309 310 312 313 313 312 312 312 313 313 313 312 312 312 313 314 315 316 315 315 316 317 319 321 323 325 326 327 328 329 330 330
304 305 305 304 303 303 304 305 306 306 305 304 305 305 303 305 309 311 308 306 307 307 306 305 304 305 306 306 306 309 312 314 315 316 316 316 317 317 316 313 310 308 308 308 309 310 310 310 309 309 309 309 308 309 309 309 311 312 312 312 312 312 313 313 312 312 312 312 313 314 315 315 315 315 316 317 319 321 322 324 326 327 328 329 329 329
301 301 302 301 301 301 302 302 302 303 302 302 302 302 301 302 304 305 305 304 304 305 305 304 303 303 304 305 304 306 309 310 311 312 313 315 315 314 313 311 308 307 307 308 308 309 309 309 308 307 307 307 308 308 308 308 309 310 311 311 311 312 313 313 313 313 313 313 313 314 314 315 314 315 316 317 319 320 321 323 325 327 328 328 329 329
299 300 301 301 301 301 301 301 300 301 301 300 300 301 301 302 302 303 304 303 303 304 304 303 303 303 303 303 303 304 306 307 307 309 313 316 316 315 315 313 308 305 306 307 307 307 308 307 306 306 306 307 307 307 307 307 308 309 309 310 311 312 313 313 313 313 313 313 313 313 314 314 315 315 315 316 318 319 320 322 325 327 327 328 328 328
300 301 301 300 300 300 300 300 299 299 299 300 300 301 301 301 301 302 302 303 303 303 303 302 303 302 302 302 302 303 305 306 305 306 309 312 312 312 312 310 305 303 304 305 305 306 306 306 305 305 305 306 306 306 306 307 307 308 308 309 310 311 312 313 313 313 313 313 313 313 314 314 314 314 314 315 316 318 320 322 324 326 327 327 328 328
300 300 300 299 299 299 299 299 299 299 299 300 301 301 300 300 300 301 301 301 301 301 301 301 301 301 301 302 302 303 304 305 305 306 306 307 308 308 306 303 301 301 303 303 304 304 304 303 303 303 303 304 305 306 306 306 307 308 308 308 308 309 312 313 313 313 313 313 313 314 314 313 313 313 313 314 316 317 319 321 323 326 327 327 328 328
299 299 299 299 300 299 299 299 299 299 299 299 299 300 299 299 300 300 300 300 300 300 300 300 300 301 301 301 301 303 304 304 305 305 305 305 306 305 302 299 299 300 301 302 302 302 301 301 302 302 303 304 305 305 305 306 306 307 306 306 306 308 310 313 313 313 313 313 313 313 313 313 312 312 312 314 315 317 318 319 321 324 326 327 327 327
299 299 299 299 299 299 298 298 299 299 299 299 299 299 299 300 300 299 299 300 300 300 300 300 300 300 300 300 300 301 303 304 303 303 304 304 303 301 300 299 299 300 300 301 301 300 300 301 302 303 303 304 304 304 304 304 304 304 304 304 304 305 307 310 312 313 313 313 313 313 313 312 311 311 312 313 315 317 318 319 320 322 323 325 325 326
Wind_Speed
3 3 3 6 8 8 8 9 11 13 11 11 10 8 10 9 10 12 10 11 5 2 6 7 6 7 9 10 10 9 7 6 9 8 8 10 11 11 13 13 13 14 13 11 17 25 26 27 29 29 30 31 30 31 32 31 32 31 31 30 29 30 30 29 27 26 25 25 24 24 26 26 26 26 24 23 23 23 24 26 26 25 23 23 22 21
3 5 7 10 12 10 11 11 10 11 12 11 9 8 10 8 11 13 10 11 6 3 6 8 6 9 9 8 8 7 7 8 10 8 9 13 14 13 15 15 14 13 9 7 12 18 22 23 26 28 29 32 31 32 34 33 33 32 31 31 31 31 30 30 30 28 26 27 27 25 27 27 26 26 25 23 25 25 25 26 27 25 23 22 22 22
2 6 10 12 12 10 11 11 10 12 12 10 8 7 8 7 9 10 9 11 5 3 6 10 8 9 9 8 8 8 7 8 9 8 9 14 15 13 13 14 13 12 7 8 10 13 18 21 25 27 28 32 33 33 34 34 33 32 32 32 32 32 32 31 30 29 28 28 28 26 26 27 25 24 24 23 24 25 25 26 27 26 23 22 22 22
4 8 10 11 10 9 12 13 11 11 9 8 8 6 8 10 7 6 7 9 5 0 6 8 6 6 6 7 8 8 7 6 9 9 6 12 15 15 16 15 14 14 11 10 10 11 14 18 22 24 25 29 29 30 32 32 33 33 33 33 33 33 32 31 30 30 29 27 25 24 25 25 24 23 24 23 23 23 24 25 26 26 24 22 22 23
8 12 10 8 9 10 12 14 12 8 7 9 10 8 10 11 9 7 7 6 6 4 4 3 5 5 5 5 6 8 6 5 9 10 6 3 11 14 16 16 15 15 13 13 12 12 13 16 20 23 25 26 27 29 32 34 35 35 35 35 34 33 33 32 30 29 29 25 22 21 20 21 21 20 22 22 21 21 22 24 25 25 24 22 22 23
10 13 11 9 11 10 10 12 12 8 7 9 10 13 15 12 10 9 7 4 5 6 4 2 4 5 5 5 6 6 8 9 10 11 11 6 2 8 11 11 11 13 13 14 15 15 14 14 18 21 23 25 27 30 33 34 35 35 35 35 33 33 32 32 30 29 28 26 24 22 20 20 20 19 21 23 23 23 23 23 24 24 23 22 21 22
6 10 9 10 11 10 9 8 9 8 5 6 8 11 13 9 6 7 7 3 1 5 5 0 1 4 6 6 6 5 9 9 10 10 10 8 4 3 8 9 9 10 11 12 13 14 13 13 15 18 23 26 27 28 30 31 32 32 33 33 33 32 32 31 30 29 28 26 26 25 23 23 22 20 22 23 24 24 24 23 23 23 22 21 20 21
4 6 6 7 7 7 7 6 7 6 4 6 6 5 5 5 6 6 6 4 3 4 5 4 1 2 4 4 5 4 8 9 10 11 11 10 8 5 3 10 13 13 12 12 11 12 12 14 16 19 24 27 26 26 27 28 29 30 31 32 32 31 31 31 31 30 29 28 27 27 25 24 23 23 22 23 24 23 23 22 23 23 22 21 20 21
4 6 8 8 7 6 5 6 7 4 3 6 6 4 2 3 5 4 3 4 3 2 5 6 2 1 4 5 5 5 7 7 8 8 10 10 10 8 3 6 11 13 13 12 12 13 13 15 19 21 23 25 25 26 27 28 29 29 29 30 30 29 28 30 31 31 31 29 28 27 26 24 23 23 21 22 23 22 21 21 22 22 22 21 20 20
5 7 9 7 6 6 7 8 7 4 5 7 5 3 1 1 3 1 1 3 2 2 4 6 2 0 4 5 4 5 4 3 3 5 7 8 8 8 6 6 6 7 8 9 10 11 12 13 15 17 19 21 24 27 27 27 27 27 27 28 28 28 26 28 30 31 31 30 28 28 27 25 23 21 19 19 21 21 21 21 21 21 21 20 20 18
7 6 5 5 6 6 7 9 8 7 10 8 4 3 4 5 3 2 1 2 2 3 5 6 0 4 1 4 3 1 2 3 2 2 3 6 9 9 7 7 7 6 6 6 5 5 5 8 10 13 15 17 20 24 26 26 25 25 26 26 26 26 25 26 28 29 30 30 29 28 28 26 24 22 20 20 21 21 21 21 21 20 20 20 19 17
6 5 4 5 6 5 5 7 7 7 6 3 0 2 3 5 4 4 4 4 1 5 5 4 1 4 2 4 4 4 3 4 3 3 6 6 7 8 8 8 8 6 5 5 5 5 5 7 9 12 14 15 18 22 25 27 26 25 25 25 24 23 23 24 26 28 29 29 29 28 28 27 25 24 23 23 23 23 23 22 21 20 20 19 18 17
5 5 6 5 5 4 3 4 6 6 3 2 1 3 3 4 4 3 4 2 3 6 5 3 0 1 3 5 5 6 5 6 4 3 5 7 8 7 7 7 7 7 6 5 5 6 6 6 7 10 14 18 21 24 26 27 26 24 23 23 23 22 22 23 24 26 27 28 28 27 27 27 26 25 25 25 25 24 24 23 22 21 21 20 18 18
4 7 7 4 4 2 2 1 4 4 4 3 1 1 1 0 1 3 4 3 3 5 6 3 2 3 3 4 6 7 5 7 8 7 6 6 9 8 6 6 7 8 7 5 4 4 6 6 6 10 15 18 20 23 25 25 24 20 16 16 18 19 21 22 24 25 26 27 27 27 27 27 26 26 26 26 26 25 25 24 23 23 22 21 21 20
2 5 5 1 2 4 2 1 4 3 2 4 2 3 2 2 2 4 3 3 5 5 5 3 2 3 2 3 4 5 3 3 6 7 8 7 7 8 7 7 7 7 6 5 5 4 5 7 8 12 14 17 20 21 17 12 10 8 6 5 9 13 19 22 24 26 27 27 26 27 27 27 26 26 26 26 26 26 26 25 25 24 22 22 22 21
2 5 6 2 2 1 5 4 1 2 2 4 1 3 1 4 4 3 3 5 4 3 3 2 2 4 3 2 2 6 4 3 3 5 8 7 6 8 8 5 5 6 6 6 6 4 4 7 9 10 12 16 14 7 11 15 15 11 6 11 15 17 21 25 26 27 28 28 26 26 27 27 27 26 26 26 26 26 27 26 26 25 23 23 23 22
0 5 6 7 5 3 5 5 2 3 2 3 3 3 5 4 4 0 4 3 1 2 4 2 2 2 1 2 3 5 4 4 4 5 9 8 6 7 7 5 5 5 5 5 5 5 3 4 7 10 13 10 9 21 21 16 14 16 19 22 25 25 25 28 30 30 29 28 27 27 27 27 27 26 26 26 27 27 27 27 26 25 24 23 23 22
1 4 6 6 7 6 7 7 5 1 2 1 2 5 4 1 3 3 2 4 3 3 5 2 4 4 1 1 2 1 4 5 5 5 7 7 6 7 6 5 5 5 5 5 5 6 4 0 3 9 10 9 19 16 11 11 14 20 24 27 31 30 27 27 29 29 29 28 27 27 27 27 28 28 27 27 27 27 27 27 26 26 25 25 24 24
1 4 7 3 3 6 8 9 7 5 3 2 2 4 1 1 3 1 1 2 3 4 5 4 4 5 4 5 6 7 8 8 7 6 7 7 7 7 6 6 5 5 5 5 5 6 6 5 5 2 5 14 15 14 15 14 18 22 24 28 31 31 28 24 24 27 27 27 27 27 27 27 27 28 28 28 27 26 26 27 27 27 26 26 25 25
3 2 6 4 3 5 5 4 3 6 7 5 2 3 2 2 3 2 2 2 3 4 4 4 4 4 5 6 11 12 11 10 9 7 6 7 7 7 6 6 6 5 5 5 6 7 7 8 14 17 17 18 16 17 15 14 19 22 24 26 28 28 26 24 23 26 29 29 28 27 27 27 28 28 29 29 28 27 27 27 27 27 27 26 26 26
3 1 5 6 5 4 4 2 2 3 5 5 5 5 4 2 1 2 2 2 3 3 3 3 4 5 5 5 10 14 12 11 10 9 8 7 6 6 6 6 6 6 6 6 7 8 7 9 16 23 21 19 14 13 12 10 14 20 24 25 24 24 25 27 26 25 28 30 30 29 28 29 29 29 29 29 30 29 28 28 27 28 27 26 26 26
1 0 4 5 4 3 4 5 4 5 5 3 3 3 3 3 1 2 4 2 1 3 4 4 5 6 6 3 1 4 4 3 3 2 4 4 6 6 6 7 6 5 5 5 7 7 7 9 14 21 22 19 15 10 8 7 9 15 19 21 21 20 22 26 27 25 25 26 28 29 28 29 30 31 30 30 30 31 30 29 29 28 27 27 27 27
2 1 3 5 5 4 6 7 6 7 9 6 3 1 1 0 2 1 4 4 4 3 1 1 3 5 5 5 7 8 9 11 12 11 7 4 1 2 2 2 3 4 5 6 6 6 6 8 14 20 22 20 17 12 7 4 5 8 12 15 18 20 22 24 25 25 23 23 27 29 29 28 28 29 30 31 31 31 31 31 30 29 29 28 27 27
1 1 2 5 5 3 5 6 5 5 5 4 3 1 2 1 2 3 4 2 3 5 3 1 4 5 5 4 8 9 10 10 9 9 9 9 6 3 4 3 1 5 8 7 6 5 6 9 12 15 17 18 17 15 12 8 5 2 2 5 9 14 19 22 24 25 21 19 21 23 26 28 29 29 30 31 32 32 31 31 31 30 30 28 28 27
3 2 2 5 6 7 6 5 5 5 3 2 4 1 2 1 2 0 1 2 1 4 2 3 5 5 4 2 6 8 8 8 5 4 6 9 8 5 2 2 0 6 8 6 6 7 7 8 9 10 12 14 15 15 15 14 12 10 8 7 7 9 12 15 19 21 20 17 13 11 11 12 15 19 21 23 25 26 28 29 30 30 30 29 28 29
2 3 2 3 5 8 8 6 4 3 2 3 4 4 2 2 2 1 2 2 2 4 2 2 4 6 7 3 5 8 8 5 2 3 5 8 9 7 4 2 2 7 8 7 7 7 7 7 7 8 12 13 14 14 14 14 15 15 15 16 16 17 16 15 14 14 16 16 12 12 13 12 8 8 14 16 17 18 19 21 23 26 28 29 29 30
1 1 3 6 7 9 9 8 5 2 3 6 7 10 9 4 2 3 1 2 4 3 5 4 4 5 7 4 4 5 7 5 4 6 6 5 7 8 6 3 2 7 7 7 7 7 7 7 6 8 12 14 16 17 17 17 17 17 18 19 20 21 21 19 17 13 11 13 14 18 21 18 13 15 20 22 22 21 18 17 18 21 24 27 28 30
1 3 4 6 8 10 9 9 7 4 6 9 10 12 13 8 3 4 4 6 5 2 6 6 4 5 7 2 1 1 2 2 5 7 7 7 7 7 5 2 5 8 6 7 8 8 7 7 6 7 10 13 15 16 17 17 18 19 19 19 19 22 23 21 19 15 9 10 14 17 20 21 18 20 22 24 26 27 25 23 23 24 25 26 28 30
0 4 5 4 6 9 8 9 9 6 6 9 10 11 11 9 7 6 7 8 6 5 7 7 4 7 11 7 4 2 3 7 7 7 6 6 6 6 6 6 7 8 8 8 8 7 7 7 6 7 9 11 13 13 14 15 17 19 20 20 20 22 22 21 21 19 12 9 13 16 17 18 17 18 21 23 26 28 29 28 28 29 29 29 30 32
2 4 3 3 5 7 6 8 9 7 7 9 11 12 11 8 6 7 7 8 7 7 8 8 7 9 11 10 5 8 7 10 8 4 5 8 8 7 8 8 9 9 9 9 8 7 7 6 6 6 8 10 11 12 13 15 16 18 19 19 19 21 21 20 21 22 18 13 13 16 16 16 17 18 20 22 24 26 29 30 31 32 33 33 33 33
3 4 5 4 5 6 6 6 7 8 8 11 14 16 12 7 5 7 7 6 5 6 8 8 10 10 8 7 5 6 9 7 6 7 8 10 11 8 6 7 9 9 9 9 9 7 7 6 6 6 7 8 10 11 12 11 11 14 17 18 18 19 19 19 21 24 23 21 19 18 15 14 16 18 21 24 24 24 27 29 31 33 33 33 33 34
3 4 5 4 4 8 6 3 7 10 11 15 20 19 13 8 7 7 6 5 6 7 8 7 8 8 6 5 5 6 8 8 8 10 9 9 8 6 7 7 8 8 8 8 8 7 7 6 6 6 7 8 8 9 9 9 10 12 14 16 17 18 18 18 20 23 25 24 24 23 19 15 14 16 20 24 26 27 28 29 30 31 32 33 34 34
3 4 3 1 4 9 6 2 5 8 9 12 14 11 9 10 9 8 6 6 7 7 6 6 6 6 5 4 5 7 6 8 11 11 10 9 8 9 10 10 9 8 8 8 7 7 6 6 6 6 7 8 8 7 7 9 11 12 13 14 15 16 17 18 19 21 24 25 25 25 24 19 15 15 17 20 23 26 28 29 29 29 31 31 31 30
6 6 4 3 4 7 7 2 4 4 10 11 5 2 2 3 5 6 6 7 7 6 5 5 5 6 6 5 5 7 7 6 4 4 4 5 6 8 9 9 9 8 7 7 7 7 6 6 6 8 8 8 6 5 8 11 13 13 14 13 13 14 16 17 19 20 22 24 25 26 26 23 18 16 17 18 20 22 24 27 28 26 25 26 26 25
8 7 4 3 3 5 5 2 2 8 11 9 4 1 2 4 5 7 9 11 12 9 5 5 7 7 6 5 5 6 3 3 5 5 4 1 4 6 7 7 7 7 7 7 7 6 6 8 10 10 9 6 5 7 10 12 14 14 14 13 12 13 15 16 18 20 21 24 25 25 26 26 23 19 19 19 20 20 22 24 24 21 21 23 26 28
9 6 4 3 3 3 3 5 8 9 9 12 12 5 2 6 9 9 10 13 12 9 5 5 6 5 4 5 6 4 0 2 5 7 8 6 4 5 6 5 6 7 7 6 6 7 8 10 10 8 7 6 9 11 12 12 13 13 13 13 14 14 15 16 17 19 21 23 26 26 26 27 26 23 21 19 19 19 20 21 21 20 21 24 27 29
8 6 4 4 4 4 5 6 7 7 10 15 13 5 2 5 6 5 6 8 6 5 3 2 1 3 2 4 7 6 2 4 5 6 7 7 6 5 5 4 4 5 5 4 6 10 12 11 8 6 6 8 11 11 11 10 11 12 13 13 15 16 16 17 17 19 21 23 25 27 27 27 27 26 23 20 17 18 18 19 20 22 23 25 27 29
5 6 5 5 5 5 5 6 5 6 9 11 7 1 1 1 1 2 2 3 3 4 2 2 3 1 1 2 5 6 3 5 3 2 4 5 5 4 5 4 3 2 4 6 9 12 11 9 7 6 5 7 8 8 8 8 9 10 10 11 15 17 17 17 17 18 20 22 25 27 28 28 28 27 25 22 19 19 18 18 19 22 25 27 29 31
8 5 5 5 5 5 5 6 5 6 8 7 5 3 5 6 6 5 3 4 4 4 6 4 2 1 2 4 4 4 4 3 1 3 4 5 5 5 5 5 5 6 9 9 8 8 7 7 7 6 2 3 4 5 6 7 8 7 6 8 12 15 17 18 17 18 20 23 25 27 28 28 28 28 26 24 22 21 20 19 19 21 23 26 30 33
7 5 3 3 5 6 6 6 5 5 4 4 6 5 5 6 7 5 2 5 3 3 4 5 6 6 4 3 3 3 3 3 3 4 4 4 4 3 3 5 5 5 8 9 8 7 7 6 8 7 1 1 2 4 5 7 7 6 5 7 10 13 16 18 19 19 21 23 25 27 28 28 28 29 28 26 25 24 22 20 21 22 23 25 28 31
5 5 4 4 4 5 6 5 4 3 3 5 8 7 6 6 5 2 5 5 4 4 2 2 4 7 7 5 3 1 3 4 4 4 4 3 2 2 3 4 5 5 6 8 10 10 10 9 9 6 2 2 3 4 6 8 8 8 7 7 9 11 14 17 19 21 23 24 26 27 29 29 28 29 29 28 27 26 23 21 22 23 25 26 26 27
4 4 3 4 5 4 3 3 4 3 1 6 10 7 4 3 2 4 4 4 6 8 6 4 6 9 8 7 6 5 6 6 5 4 5 5 4 4 5 5 5 6 8 9 11 12 12 12 12 8 7 8 9 9 10 12 11 11 10 9 10 11 12 14 16 20 24 26 28 29 30 30 29 29 30 29 28 26 25 24 22 23 26 26 24 27
3 3 5 4 2 2 3 3 4 3 2 8 12 7 3 2 3 4 4 6 8 9 8 6 7 7 6 6 6 5 6 6 6 6 6 6 6 6 5 6 5 6 8 9 12 14 15 14 14 13 14 16 15 14 15 16 14 14 12 12 12 11 11 11 13 17 22 27 29 29 29 30 30 30 30 29 28 27 27 26 23 23 26 26 26 28
3 2 3 3 1 2 4 4 3 4 7 10 9 5 4 4 3 4 5 6 6 7 7 5 5 5 5 6 7 7 5 5 5 5 6 6 6 6 6 6 7 8 9 10 12 15 15 14 15 17 18 18 17 17 18 17 15 16 15 14 13 12 10 11 13 16 19 24 27 28 28 29 32 32 30 30 29 28 28 27 24 23 25 26 27 27
4 2 3 5 5 5 6 7 7 7 9 9 7 7 10 10 6 5 4 3 5 6 7 7 7 7 5 6 7 8 6 5 5 4 4 5 5 5 5 6 7 8 10 12 15 16 15 15 17 18 19 20 21 20 19 17 16 17 18 16 15 13 12 13 16 17 18 21 24 26 27 30 33 33 32 31 29 27 28 28 25 23 24 25 26 25
7 6 5 5 7 8 8 8 9 9 9 10 10 11 13 14 10 5 2 4 5 6 5 6 8 9 7 6 6 5 5 6 7 6 6 5 5 6 5 5 8 11 13 13 15 17 18 17 17 17 18 22 24 21 19 18 18 18 19 19 17 15 15 17 18 18 19 20 23 25 27 29 32 32 32 32 30 28 28 29 25 23 24 25 24 25
7 5 4 5 7 7 7 9 10 10 11 13 14 14 14 12 7 3 2 3 5 6 6 6 8 10 9 8 7 6 6 6 5 6 6 5 5 6 6 6 8 12 13 14 15 17 17 15 15 16 17 20 23 22 20 20 21 21 22 22 20 19 20 20 20 20 20 21 23 25 26 27 29 31 32 33 32 30 29 28 26 23 23 24 24 24
5 2 3 6 7 6 8 14 16 15 14 13 11 10 9 8 8 6 3 3 4 5 7 8 8 8 10 10 10 8 7 7 6 6 6 5 5 6 5 6 9 12 15 17 17 15 14 13 14 16 17 20 23 23 22 22 23 24 24 22 21 21 22 23 22 22 22 22 23 25 26 26 28 30 31 32 33 31 29 28 26 23 24 26 26 25
4 5 6 7 7 8 10 14 15 14 12 11 8 8 9 11 12 12 8 6 7 8 9 9 9 9 10 11 10 9 8 8 7 7 6 6 6 6 6 8 11 14 16 18 17 15 15 15 17 19 20 23 24 23 22 22 23 23 22 22 22 23 23 24 24 24 24 24 23 24 26 27 28 29 30 31 33 32 30 29 27 26 27 29 30 29
4 8 8 6 6 9 10 11 10 9 10 10 11 12 13 12 12 12 11 11 11 10 11 11 12 11 11 11 9 8 8 9 8 7 7 7 6 7 9 11 12 14 15 17 17 17 19 20 21 21 22 23 23 22 22 22 22 22 22 23 25 25 25 26 27 26 26 25 23 24 25 26 28 29 28 29 31 31 30 29 29 28 29 30 30 30
6 9 8 7 9 11 13 14 11 8 10 12 13 14 14 12 12 13 13 12 10 11 11 12 12 12 11 11 10 8 8 8 9 8 7 7 9 11 13 14 14 14 17 19 18 19 21 21 21 21 21 23 24 23 23 23 24 24 25 26 27 28 29 30 29 27 26 25 24 24 25 27 28 29 28 28 29 29 27 28 29 30 30 31 31 29
Wind_Direction
169 204 239 237 245 234 231 221 221 245 255 263 277 277 273 278 281 280 277 278 299 359 267 248 241 254 258 257 255 260 254 228 237 224 172 177 187 183 187 191 189 199 211 197 182 182 186 188 180 174 177 178 179 183 185 187 190 192 192 193 195 197 199 199 200 201 202 202 201 203 205 207 209 211 213 216 218 220 218 217 217 215 217 220 219 217
163 214 229 229 241 239 237 236 235 248 255 258 264 269 274 272 272 273 272 284 316 51 280 279 286 281 274 270 266 266 267 254 245 224 175 177 188 190 189 188 189 202 205 170 175 179 181 184 178 172 173 175 177 181 185 188 189 189 191 193 195 197 199 200 201 200 200 200 200 200 201 202 205 208 209 212 216 219 218 218 215 213 215 216 215 216
246 245 239 233 240 245 247 246 242 250 254 257 259 262 272 265 267 277 279 287 318 63 287 289 292 281 276 282 288 290 274 253 248 232 186 176 186 190 188 186 188 198 191 167 177 175 175 182 179 173 173 178 181 181 185 188 188 187 189 192 194 196 198 201 202 200 199 200 201 201 200 199 201 206 210 212 215 218 219 221 219 216 215 215 217 219
239 252 243 235 238 243 254 255 244 250 258 255 255 254 260 260 261 277 284 294 316 258 267 291 301 283 293 306 298 289 270 261 275 268 211 175 183 186 185 186 186 189 187 176 177 172 171 178 181 178 176 179 180 181 183 186 186 187 190 193 194 195 198 200 202 202 201 200 199 201 203 203 202 206 210 214 216 218 220 222 221 220 217 218 221 223
235 250 248 241 238 231 243 256 251 249 262 256 252 248 251 254 244 237 265 305 341 321 278 343 355 308 311 326 304 302 313 334 336 336 356 148 184 187 185 186 184 184 183 175 173 174 173 179 185 184 179 178 179 182 186 187 187 189 191 194 195 195 198 201 204 204 201 198 194 196 200 202 203 206 208 210 212 214 218 221 220 219 219 220 224 225
246 252 256 257 254 242 236 251 252 238 253 266 256 246 239 234 233 245 274 335 5 322 293 42 19 301 301 316 301 326 9 12 6 7 6 10 149 174 181 185 187 188 183 175 174 177 179 180 181 182 180 179 182 187 190 190 190 191 192 194 195 196 198 202 204 202 200 198 195 192 190 190 194 199 203 206 208 210 215 219 219 219 220 222 224 226
251 251 250 249 255 257 247 253 248 222 229 262 254 245 238 231 245 270 293 328 312 274 278 315 187 269 305 326 320 5 40 20 6 9 357 353 19 136 174 175 182 192 186 177 178 175 175 177 176 182 185 184 186 190 192 192 193 193 194 195 196 197 198 200 201 199 198 198 197 197 195 191 192 195 201 206 209 212 216 218 219 220 222 224 226 227
255 271 279 265 262 264 255 257 251 218 208 249 264 292 298 304 301 290 298 290 236 257 308 325 182 234 296 296 307 13 52 28 6 1 352 345 350 5 163 178 182 186 183 177 176 173 174 181 184 185 187 188 188 188 190 193 195 196 197 197 198 199 199 199 199 197 197 198 199 200 200 198 197 199 203 206 209 214 216 216 218 220 223 225 226 226
261 270 279 276 280 275 254 250 256 259 243 241 253 290 312 290 271 269 289 270 258 335 316 310 341 318 278 276 314 10 60 39 9 355 350 343 337 353 46 166 180 178 176 173 171 174 181 190 191 185 183 186 187 185 189 194 197 197 198 199 200 201 200 199 198 198 198 200 201 201 201 201 201 201 203 206 209 213 214 215 217 219 222 224 224 225
244 245 256 258 266 260 257 258 253 254 260 255 261 277 301 281 263 269 255 251 334 14 267 277 334 60 273 287 328 13 68 73 28 3 344 341 342 353 32 80 125 150 162 169 172 177 185 190 187 179 178 183 187 188 190 192 196 197 196 198 200 202 202 201 199 198 199 201 201 202 202 202 201 201 202 204 208 211 213 215 217 220 222 222 223 223
248 265 264 240 237 234 249 264 256 246 257 272 302 351 352 344 355 6 10 93 23 300 254 259 192 114 282 290 282 297 143 164 155 75 21 1 7 4 16 57 83 103 129 145 143 143 158 164 164 167 173 181 186 190 190 190 192 194 195 196 199 202 204 204 202 200 201 202 202 204 205 205 204 201 199 200 205 209 212 215 219 222 223 222 222 221
283 296 278 244 240 242 254 270 279 276 265 260 315 51 358 330 357 10 357 31 319 264 255 248 161 116 211 266 248 236 203 169 189 133 102 66 36 20 12 35 60 77 101 116 118 118 123 136 152 162 170 179 185 190 192 193 192 191 191 192 195 201 203 205 205 202 203 203 204 207 209 209 208 205 202 202 205 208 210 215 219 221 222 223 223 222
307 273 277 278 260 247 242 270 302 322 355 47 48 46 26 331 349 353 317 317 245 254 251 223 148 126 235 244 223 214 192 150 156 158 123 101 80 56 27 30 49 59 66 84 119 140 143 150 161 166 174 182 188 192 193 193 191 188 187 189 192 198 203 207 207 206 207 206 207 210 211 213 212 209 207 206 207 208 209 214 216 217 218 221 224 224
309 293 301 305 293 289 138 186 298 310 337 345 312 104 82 17 336 290 275 285 270 267 269 259 273 277 281 271 220 199 188 158 145 141 135 112 96 84 54 39 51 58 56 55 83 134 158 161 167 181 189 191 192 194 194 193 190 183 177 182 190 198 204 209 210 210 212 212 212 213 213 215 215 213 212 210 209 209 209 211 213 214 216 218 222 225
228 294 293 258 305 326 6 226 213 210 271 278 218 146 155 171 216 253 234 236 260 268 284 304 271 219 231 266 209 158 150 160 141 133 128 115 104 97 71 44 46 56 54 47 54 91 148 156 173 187 191 194 197 198 189 169 144 113 97 157 192 206 210 211 213 213 214 215 215 216 215 216 217 217 216 215 213 210 208 208 209 212 216 219 221 226
175 249 258 255 237 345 360 317 239 58 329 269 335 56 258 194 185 244 217 204 239 275 284 285 234 209 215 266 102 110 123 139 133 125 115 107 103 100 89 70 57 53 50 51 51 65 124 156 175 182 193 203 198 150 96 94 99 109 162 209 211 211 212 213 214 214 215 215 215 216 217 217 217 218 219 217 215 212 209 208 208 211 216 220 222 227
346 261 286 315 307 16 15 328 332 23 288 282 359 311 251 183 135 8 287 279 12 295 272 242 247 283 13 6 37 86 128 149 152 136 118 119 119 105 106 114 102 80 68 69 68 77 116 175 177 180 199 193 89 65 73 98 136 170 197 214 217 215 212 213 213 214 216 215 214 216 217 217 216 217 219 220 217 214 211 210 210 213 216 219 223 228
286 275 283 300 295 317 353 347 345 332 192 42 333 264 259 44 70 74 331 325 351 288 280 257 227 234 137 243 265 169 182 184 179 150 123 127 128 118 124 131 118 106 92 80 76 80 82 122 202 211 205 115 84 87 114 145 177 195 205 215 221 220 217 215 215 215 216 216 216 216 217 218 216 215 218 222 222 218 213 211 211 213 216 219 224 227
343 302 287 297 298 310 350 2 342 329 3 75 221 263 323 325 301 44 108 289 283 267 282 284 243 221 202 205 197 198 204 192 184 169 143 139 135 128 129 125 112 102 88 71 61 62 59 53 39 10 125 108 120 160 176 186 199 206 213 219 223 224 221 220 219 218 219 219 219 219 219 220 219 216 216 220 223 223 218 215 213 213 216 220 224 226
358 341 282 311 346 321 349 7 309 313 337 348 342 347 17 186 219 219 176 171 205 240 261 278 277 245 232 206 188 196 200 184 179 173 156 152 148 138 129 122 111 104 100 85 73 67 62 62 52 59 99 134 164 174 170 187 201 207 219 226 229 228 223 223 222 220 220 219 218 219 219 220 220 219 217 216 219 223 224 222 218 216 217 219 223 226
2 21 270 298 343 339 326 303 265 303 324 336 340 333 325 307 237 249 260 155 162 217 234 256 276 261 253 219 192 195 192 182 176 165 162 167 156 141 135 135 131 133 134 109 89 83 76 73 63 67 97 136 163 172 177 189 198 209 219 225 230 232 228 226 226 224 223 220 218 217 216 217 218 219 219 217 215 218 223 225 222 218 218 218 221 224
24 96 257 289 327 310 252 254 288 303 293 277 267 279 291 294 304 295 288 280 211 210 202 218 258 263 278 306 200 173 145 98 31 89 157 162 157 155 153 150 147 147 143 107 89 95 89 81 76 75 88 112 131 153 185 205 213 222 228 231 237 242 240 236 232 230 228 224 220 218 216 216 217 217 218 219 217 215 216 220 221 220 218 218 219 222
173 145 261 272 275 248 249 263 270 277 279 270 255 223 155 328 64 114 261 285 301 274 211 171 253 262 295 7 48 58 63 47 15 354 342 334 290 147 98 120 126 95 87 81 74 81 86 84 84 82 84 95 113 131 148 177 223 241 246 248 251 254 255 252 245 239 237 232 226 221 219 217 216 217 217 219 220 218 214 214 217 218 219 219 220 222
269 9 302 289 292 295 298 293 284 289 289 277 290 24 92 73 101 171 231 277 292 275 280 290 256 261 295 24 65 65 65 61 29 351 330 313 305 357 25 335 340 72 74 81 79 70 76 81 81 83 86 92 101 109 109 99 85 56 294 283 277 273 273 271 263 255 251 248 238 230 225 220 217 217 218 219 221 221 217 213 212 214 217 220 221 220
292 276 303 315 313 313 330 341 333 338 352 293 287 279 121 35 7 239 309 30 313 272 257 230 246 260 284 5 75 78 72 75 65 352 310 291 291 309 329 281 118 88 83 77 71 62 62 69 71 75 83 89 93 97 96 88 80 72 58 36 10 346 329 310 290 273 266 269 276 286 284 261 234 222 222 227 229 228 225 218 212 212 215 219 220 220
240 228 226 267 280 284 296 300 285 288 305 294 286 272 265 353 2 4 25 41 278 299 324 240 255 287 305 344 85 101 92 87 136 204 249 268 280 286 281 273 106 106 107 97 82 74 68 65 65 66 66 66 67 69 72 72 70 65 54 42 31 22 13 358 338 309 283 277 281 286 295 306 300 251 234 237 242 244 241 232 222 217 216 218 220 221
220 252 216 207 227 249 259 261 244 217 270 276 278 286 290 287 149 130 115 224 215 278 306 256 223 280 308 352 67 105 118 138 204 213 217 245 267 272 279 288 120 118 120 115 105 98 89 79 71 67 64 59 54 49 47 45 44 43 40 37 32 24 17 10 1 341 302 283 273 256 251 254 247 229 225 228 230 233 237 240 237 231 226 223 222 223
20 312 278 230 242 255 259 267 269 259 266 268 270 278 282 278 235 185 225 230 192 214 281 255 214 275 282 242 157 350 78 164 219 218 207 219 237 242 239 195 135 123 118 114 109 107 106 100 92 84 77 71 64 57 51 42 32 29 28 28 26 20 15 11 3 351 324 286 279 267 255 251 238 222 221 223 223 221 221 225 229 230 230 228 227 227
17 264 265 244 268 280 286 290 288 281 270 272 274 270 271 274 254 226 237 235 195 195 250 244 219 262 275 261 207 183 311 285 253 223 215 229 232 208 181 162 142 131 123 118 118 119 118 116 112 105 96 88 81 74 64 46 30 24 21 20 19 15 11 9 2 354 342 297 283 283 273 259 242 228 225 224 222 221 220 222 224 223 223 223 225 228
277 264 274 270 280 290 295 295 298 304 292 285 283 272 267 261 228 219 243 245 219 217 245 255 250 249 261 270 229 167 201 253 264 278 298 283 259 220 182 161 146 140 135 128 128 129 126 129 131 128 121 108 96 88 74 53 35 24 16 12 12 10 7 4 357 352 347 332 312 302 287 264 245 235 232 230 227 226 226 225 222 222 222 221 223 226
315 295 309 329 316 294 293 303 309 317 316 304 291 280 276 276 244 232 239 236 228 237 242 251 267 267 251 250 242 190 191 222 279 299 290 269 251 224 177 152 145 144 142 139 141 140 139 144 147 147 139 119 103 95 84 65 46 30 16 7 3 2 1 358 353 350 347 344 339 331 312 280 256 243 239 239 235 233 234 229 221 219 220 221 222 224
333 296 304 349 322 280 279 323 329 335 337 311 291 282 278 274 260 247 236 218 224 247 253 246 257 270 259 236 250 239 205 201 231 247 239 221 204 162 138 140 145 147 147 146 146 145 147 148 141 137 133 119 105 94 78 58 45 32 13 360 354 352 352 351 350 347 345 346 348 346 336 312 282 261 253 251 247 244 243 237 225 218 217 219 221 222
243 263 278 293 281 277 277 338 358 351 330 295 281 273 257 245 244 246 253 250 236 231 242 246 242 253 265 270 277 273 254 226 221 218 211 199 170 142 144 152 153 154 152 146 144 145 151 155 151 147 134 117 109 101 77 56 44 31 12 355 344 341 341 341 344 344 342 344 347 348 344 331 305 281 271 265 260 254 250 243 234 225 221 220 219 219
232 236 236 220 247 271 279 332 25 316 273 267 262 188 200 244 253 256 269 275 260 235 228 246 261 273 284 286 265 263 274 281 258 215 196 190 160 142 147 150 147 145 141 137 142 147 146 139 137 144 137 118 107 98 77 62 50 38 25 8 349 339 335 333 335 337 338 340 343 346 346 339 323 300 287 278 269 262 254 248 243 236 230 226 221 217
254 243 231 219 227 252 263 284 261 248 253 266 266 171 51 355 313 290 292 287 280 281 288 288 286 290 301 295 264 257 276 354 19 27 27 51 134 133 131 134 134 130 129 136 142 143 135 122 121 127 129 112 81 71 64 54 46 37 28 17 2 350 344 337 332 331 333 336 338 340 342 340 333 317 301 287 275 266 257 252 246 240 234 229 223 219
248 249 230 213 229 248 228 219 239 255 276 284 276 266 341 315 293 291 292 283 282 291 290 275 284 308 331 310 297 299 315 89 50 31 20 17 40 93 112 129 138 132 138 148 145 133 123 119 116 115 112 96 79 73 63 47 34 25 15 7 1 357 355 350 340 333 331 333 334 335 335 335 333 327 316 299 282 270 262 254 245 235 228 224 223 223
225 237 247 229 220 229 226 228 248 279 289 281 276 259 210 249 258 268 272 266 278 299 270 230 313 351 346 306 306 321 32 80 54 21 7 8 15 45 79 92 111 128 135 134 128 127 121 111 96 77 79 85 79 70 58 40 24 13 3 354 350 350 351 350 345 338 334 332 332 331 330 329 328 326 323 313 294 277 268 258 245 234 225 221 221 224
230 212 223 231 226 231 246 252 259 267 267 272 287 344 84 55 49 53 331 287 302 330 341 103 111 87 17 351 325 329 25 78 75 335 334 352 1 26 54 61 59 55 59 82 110 118 110 89 61 47 67 81 72 58 44 28 12 2 352 341 338 338 338 339 340 339 336 333 331 329 328 327 324 320 319 318 308 293 281 267 250 237 228 224 225 228
289 247 212 222 237 240 247 252 253 253 258 276 316 2 45 42 39 44 15 285 280 352 6 11 16 7 35 34 13 14 57 102 196 264 296 322 342 10 18 11 12 18 26 49 82 89 72 50 29 20 46 93 60 39 22 3 348 339 329 325 329 328 326 328 332 333 331 329 326 325 323 323 321 317 314 313 311 305 294 278 260 243 232 230 231 232
305 313 292 257 249 244 248 253 249 249 266 324 1 15 31 29 30 35 322 262 265 27 17 342 328 327 338 356 19 62 99 154 221 252 265 285 312 345 349 341 348 3 13 22 29 22 12 9 5 2 345 178 23 11 354 337 318 296 292 313 319 317 316 320 323 324 324 322 322 321 320 320 320 317 313 310 308 307 301 289 272 253 242 238 236 236
322 316 299 292 284 266 257 257 266 278 304 355 7 10 15 14 13 318 258 266 297 307 266 229 285 291 287 280 268 218 200 205 206 216 226 247 286 271 243 272 300 321 342 350 348 345 340 334 337 337 284 252 297 302 305 305 284 263 267 286 292 297 306 315 318 319 319 319 318 317 316 316 316 316 314 311 307 303 300 294 282 266 254 244 234 235
331 324 300 307 316 303 277 267 281 277 324 8 355 356 37 35 329 266 271 290 287 282 273 238 241 250 245 239 232 221 220 215 206 210 216 215 227 248 255 265 291 310 315 316 318 321 321 318 314 304 290 293 294 289 297 296 271 251 255 261 264 279 295 305 312 316 317 316 315 313 312 311 312 313 313 311 308 303 297 293 287 274 261 248 230 226
324 324 300 295 313 326 311 288 273 262 319 351 344 344 32 18 281 269 299 298 279 279 281 269 261 265 266 263 257 243 228 220 213 214 217 213 211 223 242 248 252 271 284 294 303 307 308 308 304 297 297 300 297 293 297 292 269 251 249 252 260 277 288 294 305 312 313 312 311 310 308 307 309 310 309 308 307 303 297 291 286 276 264 250 235 224
270 249 273 283 320 333 295 276 268 284 306 321 323 315 317 313 264 247 288 306 315 318 314 309 313 320 326 323 314 304 287 263 244 227 223 232 232 228 238 245 243 251 262 270 281 290 293 292 291 293 295 297 296 294 293 287 269 255 253 258 268 275 277 285 298 304 306 307 307 305 304 305 307 308 306 305 305 303 298 292 284 276 265 252 241 232
262 263 286 286 284 279 267 265 275 284 290 297 300 300 306 306 288 269 287 354 15 347 328 331 332 332 343 352 343 335 327 316 307 292 267 265 266 263 266 272 273 272 272 274 277 281 280 278 281 287 289 290 292 291 288 285 274 261 261 271 279 275 273 285 294 297 298 301 300 299 300 302 304 305 304 303 302 300 298 293 283 272 264 254 242 235
282 291 293 284 285 284 273 265 273 281 288 297 301 299 298 300 300 304 2 40 8 327 313 322 321 320 328 342 343 332 318 318 323 316 304 300 300 296 292 290 290 288 283 281 281 280 278 278 282 286 287 288 288 285 285 289 284 273 275 285 285 277 278 286 289 290 291 293 293 294 296 298 300 301 302 301 300 298 296 293 282 269 261 254 244 237
279 275 260 265 282 292 289 281 281 284 289 294 295 289 284 287 300 331 46 18 328 308 303 306 304 306 311 314 310 293 279 282 293 294 297 302 299 298 299 292 291 291 286 283 285 284 282 282 287 290 288 286 286 285 287 290 287 282 285 289 285 280 280 282 281 282 283 285 287 290 292 293 294 297 298 298 297 296 295 292 282 267 255 248 244 239
285 316 285 270 270 270 275 280 283 284 281 277 276 279 285 300 311 305 273 244 260 272 284 289 288 292 297 296 291 281 267 259 256 258 266 268 266 274 280 273 275 282 283 284 285 284 283 283 285 285 283 281 284 287 287 286 285 285 285 286 285 283 279 274 272 273 275 279 282 284 286 287 289 292 293 293 292 291 291 291 283 266 253 248 245 238
285 295 281 280 282 272 267 273 281 288 286 276 269 280 295 301 300 295 287 281 280 280 282 283 282 282 282 279 277 273 267 262 254 246 246 250 252 256 259 262 267 271 275 277 278 278 280 279 277 275 275 275 278 283 285 285 287 287 286 289 292 287 275 267 267 268 270 273 274 276 279 282 285 287 288 288 288 287 287 288 283 270 260 256 252 243
259 266 269 279 280 270 266 268 274 283 285 281 282 287 289 286 284 285 288 290 290 288 286 285 283 280 275 269 260 252 254 259 258 253 252 251 250 253 260 268 272 273 273 274 275 276 277 277 274 270 267 268 272 277 280 282 283 283 285 289 293 287 274 267 264 263 264 265 265 267 273 278 282 284 285 284 284 284 285 286 284 275 265 262 259 251
229 248 255 256 256 260 266 269 270 270 274 278 281 284 285 285 284 281 279 276 276 278 280 280 278 277 277 275 265 250 247 255 259 258 257 256 256 258 261 263 262 263 266 268 269 271 274 276 275 268 264 269 276 278 278 279 281 282 285 287 287 282 273 265 259 256 256 258 259 262 269 274 278 281 281 280 279 279 281 283 283 278 269 263 262 257